Tracking 25707 objects as of 29-Jun-2022
HD Live streaming from Space Station
objects crossing your sky now

IUS R/B(2)

Track IUS R/B(2) now!


NORAD ID: 25869
Int'l Code: 1999-040D
Perigee: 1,201.5 km
Apogee: 72,132.7 km
Inclination: 36.0 °
Period: 1,480.9 minutes
Semi major axis: 43038 km
RCS: 4.4547 m2 (large)
Launch date: July 23, 1999
Source: United States (US)
Launch site: AIR FORCE EASTERN TEST RANGE (AFETR)

Note: This is a ROCKET BODY
aabbcc
Your satellite tracking list
Your tracking list is empty




NASA's NSSDC Master Catalog

Two Line Element Set (TLE):
1 25869U 99040D   22178.98276261 -.00000353  00000-0  00000-0 0  9995
2 25869  36.0410 328.4846 8240516 180.2507 179.0349  0.97235213 81442
Source of the keplerian elements: AFSPC